Location: Deneb Observatory
(47.2267°N, 100.4953°W)
Time: 07:06:45
(UTC-05:00)

Iridium 66 - Visible Passes

Search period start: 27 September 2016 00:00
Search period end: 07 October 2016 00:00
Orbit: 776 x 779 km, 86.4° (Epoch: 26 September)

Date Brightness Start Highest point End Pass type
(mag) Time Alt. Az. Time Alt. Az. Time Alt. Az.
27 Sep 8.7 00:22:25 15° N 00:22:25 15° N 00:23:18 10° N visible
27 Sep 8.6 23:48:58 15° N 23:48:58 15° N 23:49:53 10° N visible
28 Sep 8.5 23:15:31 14° NNE 23:15:31 14° NNE 23:16:14 10° NNE visible
29 Sep 9.0 00:55:59 11° NNW 00:55:59 11° NNW 00:56:10 10° NNW visible
29 Sep 8.5 22:42:05 11° NNE 22:42:05 11° NNE 22:42:22 10° NNE visible
30 Sep 8.8 00:22:32 13° NNW 00:22:32 13° NNW 00:23:13 10° NNW visible
30 Sep 8.6 23:49:05 15° N 23:49:05 15° N 23:49:55 10° N visible
01 Oct 8.5 23:15:38 14° N 23:15:38 14° N 23:16:25 10° N visible
02 Oct 8.5 22:42:10 13° NNE 22:42:10 13° NNE 22:42:41 10° NNE visible
03 Oct 9.0 00:22:38 12° NNW 00:22:38 12° NNW 00:23:00 10° NNW visible
03 Oct 8.7 23:49:10 14° NNW 23:49:10 14° NNW 23:49:53 10° N visible
04 Oct 8.5 23:15:41 15° N 23:15:41 15° N 23:16:30 10° N visible
05 Oct 8.4 22:42:13 14° N 22:42:13 14° N 22:42:54 10° N visible
06 Oct 8.4 22:08:44 12° NNE 22:08:44 12° NNE 22:09:05 10° NNE visible
06 Oct 8.8 23:49:11 13° NNW 23:49:11 13° NNW 23:49:45 10° NNW visible
